Time,TemperatureF,DewpointF,PressureIn,WindDirection,WindDirectionDegrees,WindSpeedMPH,WindSpeedGustMPH,Humidity,HourlyPrecipIn,Conditions,Clouds,dailyrainin,SoftwareType,DateUTC
2013-08-02 00:24:00,66.8,61.0,29.34,WSW,242,10.0,10.0,82,0.00,,,0.00,weatherlink.com 1.10,2013-08-01 23:24:00,
2013-08-02 00:39:00,66.7,60.0,29.35,SE,145,3.0,11.0,79,0.00,,,0.00,weatherlink.com 1.10,2013-08-01 23:39:00,
2013-08-02 00:54:00,65.9,59.0,29.34,West,261,4.0,12.0,77,0.00,,,0.00,weatherlink.com 1.10,2013-08-01 23:54:00,
2013-08-02 01:09:00,65.4,58.0,29.35,ESE,115,2.0,9.0,76,0.00,,,0.00,weatherlink.com 1.10,2013-08-02 00:09:00,
2013-08-02 01:39:00,64.7,57.0,29.35,South,190,1.0,5.0,77,0.00,,,0.00,weatherlink.com 1.10,2013-08-02 00:39:00,
2013-08-02 01:54:00,64.7,57.0,29.34,SSW,194,2.0,10.0,76,0.00,,,0.00,weatherlink.com 1.10,2013-08-02 00:54:00,
2013-08-02 02:09:00,64.4,57.0,29.34,SE,141,2.0,6.0,77,0.00,,,0.00,weatherlink.com 1.10,2013-08-02 01:09:00,
2013-08-02 02:24:00,64.7,57.0,29.35,West,259,1.0,9.0,77,0.00,,,0.00,weatherlink.com 1.10,2013-08-02 01:24:00,
2013-08-02 02:54:00,64.5,58.0,29.34,West,267,1.0,7.0,78,0.00,,,0.00,weatherlink.com 1.10,2013-08-02 01:54:00,
2013-08-02 03:09:00,64.4,58.0,29.34,ESE,104,0.0,7.0,79,0.00,,,0.00,weatherlink.com 1.10,2013-08-02 02:09:00,
2013-08-02 03:24:00,63.8,58.0,29.34,SW,226,1.0,5.0,80,0.00,,,0.00,weatherlink.com 1.10,2013-08-02 02:24:00,
2013-08-02 03:39:00,63.7,56.0,29.34,ESE,122,1.0,6.0,77,0.00,,,0.00,weatherlink.com 1.10,2013-08-02 02:39:00,
2013-08-02 03:54:00,63.6,56.0,29.34,SW,235,0.0,7.0,76,0.00,,,0.00,weatherlink.com 1.10,2013-08-02 02:54:00,
2013-08-02 04:24:00,63.2,56.0,29.33,ESE,116,1.0,5.0,76,0.00,,,0.00,weatherlink.com 1.10,2013-08-02 03:24:00,
2013-08-02 04:39:00,63.0,55.0,29.33,WSW,251,4.0,7.0,76,0.00,,,0.00,weatherlink.com 1.10,2013-08-02 03:39:00,
2013-08-02 04:54:00,62.8,56.0,29.34,SW,216,2.0,9.0,77,0.00,,,0.00,weatherlink.com 1.10,2013-08-02 03:54:00,
2013-08-02 05:09:00,62.6,55.0,29.34,ESE,123,1.0,3.0,77,0.00,,,0.00,weatherlink.com 1.10,2013-08-02 04:09:00,
2013-08-02 05:24:00,62.5,55.0,29.34,SE,131,3.0,14.0,76,0.00,,,0.00,weatherlink.com 1.10,2013-08-02 04:24:00,
2013-08-02 05:39:00,62.3,55.0,29.35,SW,235,5.0,11.0,76,0.00,,,0.00,weatherlink.com 1.10,2013-08-02 04:39:00,
2013-08-02 05:54:00,62.3,55.0,29.34,SE,139,1.0,9.0,76,0.00,,,0.00,weatherlink.com 1.10,2013-08-02 04:54:00,
2013-08-02 06:09:00,62.2,55.0,29.35,SSE,153,3.0,8.0,76,0.00,,,0.00,weatherlink.com 1.10,2013-08-02 05:09:00,
2013-08-02 06:24:00,62.4,55.0,29.35,West,263,0.0,8.0,76,0.00,,,0.00,weatherlink.com 1.10,2013-08-02 05:24:00,
2013-08-02 06:39:00,62.7,55.0,29.35,SE,141,4.0,12.0,76,0.00,,,0.00,weatherlink.com 1.10,2013-08-02 05:39:00,
2013-08-02 06:54:00,62.7,55.0,29.35,SSE,148,3.0,13.0,76,0.00,,,0.00,weatherlink.com 1.10,2013-08-02 05:54:00,
2013-08-02 07:09:00,63.4,55.0,29.36,West,259,5.0,15.0,75,0.00,,,0.00,weatherlink.com 1.10,2013-08-02 06:09:00,
2013-08-02 07:24:00,63.7,55.0,29.36,SW,222,6.0,16.0,74,0.00,,,0.00,weatherlink.com 1.10,2013-08-02 06:24:00,
2013-08-02 07:39:00,63.7,55.0,29.36,West,262,6.0,16.0,74,0.00,,,0.00,weatherlink.com 1.10,2013-08-02 06:39:00,
2013-08-02 07:54:00,64.7,55.0,29.37,West,276,6.0,11.0,72,0.00,,,0.00,weatherlink.com 1.10,2013-08-02 06:54:00,
2013-08-02 08:09:00,65.1,55.0,29.38,WSW,253,2.0,13.0,71,0.00,,,0.00,weatherlink.com 1.10,2013-08-02 07:09:00,
2013-08-02 08:24:00,65.5,55.0,29.38,SSE,149,1.0,12.0,70,0.00,,,0.00,weatherlink.com 1.10,2013-08-02 07:24:00,
2013-08-02 08:39:00,66.1,56.0,29.38,SW,222,5.0,10.0,69,0.00,,,0.00,weatherlink.com 1.10,2013-08-02 07:39:00,
2013-08-02 08:54:00,66.7,56.0,29.38,West,276,2.0,13.0,68,0.00,,,0.00,weatherlink.com 1.10,2013-08-02 07:54:00,
2013-08-02 09:09:00,66.1,54.0,29.39,WSW,256,3.0,11.0,66,0.00,,,0.00,weatherlink.com 1.10,2013-08-02 08:09:00,
2013-08-02 09:25:00,67.0,54.0,29.39,NW,315,6.0,13.0,64,0.00,,,0.00,weatherlink.com 1.10,2013-08-02 08:25:00,
2013-08-02 09:40:00,67.6,55.0,29.39,WSW,256,7.0,14.0,64,0.00,,,0.00,weatherlink.com 1.10,2013-08-02 08:40:00,
2013-08-02 09:55:00,67.5,54.0,29.39,SW,228,4.0,16.0,63,0.00,,,0.00,weatherlink.com 1.10,2013-08-02 08:55:00,
2013-08-02 10:10:00,67.7,54.0,29.39,WNW,295,10.0,18.0,61,0.00,,,0.00,weatherlink.com 1.10,2013-08-02 09:10:00,
2013-08-02 10:25:00,68.1,54.0,29.39,SSW,200,13.0,19.0,61,0.00,,,0.00,weatherlink.com 1.10,2013-08-02 09:25:00,
2013-08-02 10:40:00,68.6,54.0,29.39,WSW,242,11.0,14.0,59,0.00,,,0.00,weatherlink.com 1.10,2013-08-02 09:40:00,
2013-08-02 10:55:00,68.9,54.0,29.39,WNW,295,10.0,20.0,59,0.00,,,0.00,weatherlink.com 1.10,2013-08-02 09:55:00,
2013-08-02 11:10:00,69.2,54.0,29.39,West,271,3.0,19.0,59,0.00,,,0.00,weatherlink.com 1.10,2013-08-02 10:10:00,
2013-08-02 11:25:00,70.4,55.0,29.39,WNW,293,8.0,11.0,58,0.00,,,0.00,weatherlink.com 1.10,2013-08-02 10:25:00,
2013-08-02 11:40:00,70.0,54.0,29.39,WNW,288,7.0,15.0,57,0.00,,,0.00,weatherlink.com 1.10,2013-08-02 10:40:00,
2013-08-02 11:55:00,71.0,55.0,29.39,West,277,6.0,14.0,57,0.00,,,0.00,weatherlink.com 1.10,2013-08-02 10:55:00,
2013-08-02 12:10:00,70.3,54.0,29.39,WSW,245,4.0,16.0,57,0.00,,,0.00,weatherlink.com 1.10,2013-08-02 11:10:00,
2013-08-02 12:25:00,71.2,54.0,29.39,South,186,8.0,13.0,55,0.00,,,0.00,weatherlink.com 1.10,2013-08-02 11:25:00,
2013-08-02 12:40:00,71.0,54.0,29.39,West,276,5.0,20.0,55,0.00,,,0.00,weatherlink.com 1.10,2013-08-02 11:40:00,
2013-08-02 12:55:00,71.3,54.0,29.39,West,264,13.0,19.0,55,0.00,,,0.00,weatherlink.com 1.10,2013-08-02 11:55:00,
2013-08-02 13:10:00,72.1,54.0,29.38,SSW,198,4.0,15.0,54,0.00,,,0.00,weatherlink.com 1.10,2013-08-02 12:10:00,
2013-08-02 13:25:00,72.7,55.0,29.39,SSE,152,2.0,17.0,54,0.00,,,0.00,weatherlink.com 1.10,2013-08-02 12:25:00,
2013-08-02 13:40:00,72.4,55.0,29.39,WSW,253,6.0,17.0,54,0.00,,,0.00,weatherlink.com 1.10,2013-08-02 12:40:00,
2013-08-02 13:55:00,71.9,54.0,29.39,NW,305,4.0,15.0,54,0.00,,,0.00,weatherlink.com 1.10,2013-08-02 12:55:00,
2013-08-02 14:10:00,71.7,55.0,29.39,SSW,193,6.0,16.0,55,0.00,,,0.00,weatherlink.com 1.10,2013-08-02 13:10:00,
2013-08-02 14:25:00,72.0,54.0,29.39,SW,228,5.0,14.0,54,0.00,,,0.00,weatherlink.com 1.10,2013-08-02 13:25:00,
2013-08-02 14:40:00,70.5,55.0,29.39,SSW,212,6.0,15.0,59,0.00,,,0.00,weatherlink.com 1.10,2013-08-02 13:40:00,
2013-08-02 14:55:00,69.1,57.0,29.40,SSW,195,4.0,16.0,66,0.00,,,0.00,weatherlink.com 1.10,2013-08-02 13:55:00,
2013-08-02 15:10:00,70.5,56.0,29.39,SE,135,7.0,12.0,61,0.00,,,0.00,weatherlink.com 1.10,2013-08-02 14:10:00,
2013-08-02 15:25:00,70.9,54.0,29.40,South,170,3.0,13.0,56,0.00,,,0.00,weatherlink.com 1.10,2013-08-02 14:25:00,
2013-08-02 15:40:00,69.2,55.0,29.40,West,278,6.0,12.0,60,0.00,,,0.00,weatherlink.com 1.10,2013-08-02 14:40:00,
2013-08-02 15:55:00,68.8,55.0,29.41,WSW,249,3.0,9.0,62,0.00,,,0.00,weatherlink.com 1.10,2013-08-02 14:55:00,
2013-08-02 16:10:00,69.7,56.0,29.40,WNW,284,3.0,10.0,61,0.00,,,0.00,weatherlink.com 1.10,2013-08-02 15:10:00,
2013-08-02 16:25:00,68.3,56.0,29.41,West,262,1.0,9.0,65,0.00,,,0.00,weatherlink.com 1.10,2013-08-02 15:25:00,
2013-08-02 16:40:00,66.0,57.0,29.43,WNW,298,10.0,13.0,72,0.00,,,0.00,weatherlink.com 1.10,2013-08-02 15:40:00,
2013-08-02 16:55:00,62.2,55.0,29.42,West,266,5.0,14.0,78,0.03,,,0.03,weatherlink.com 1.10,2013-08-02 15:55:00,
2013-08-02 17:10:00,62.2,56.0,29.41,WNW,291,4.0,8.0,80,0.04,,,0.04,weatherlink.com 1.10,2013-08-02 16:10:00,
2013-08-02 17:25:00,62.3,57.0,29.42,WSW,253,5.0,9.0,82,0.05,,,0.05,weatherlink.com 1.10,2013-08-02 16:25:00,
2013-08-02 17:40:00,64.5,58.0,29.41,SSW,198,2.0,5.0,80,0.05,,,0.05,weatherlink.com 1.10,2013-08-02 16:40:00,
2013-08-02 17:55:00,65.1,58.0,29.41,West,271,2.0,5.0,78,0.02,,,0.05,weatherlink.com 1.10,2013-08-02 16:55:00,
2013-08-02 18:10:00,66.0,59.0,29.41,WSW,256,1.0,4.0,77,0.01,,,0.05,weatherlink.com 1.10,2013-08-02 17:10:00,
2013-08-02 18:25:00,65.5,57.0,29.42,WSW,239,2.0,10.0,75,0.00,,,0.05,weatherlink.com 1.10,2013-08-02 17:25:00,
2013-08-02 18:40:00,62.7,55.0,29.42,WSW,257,5.0,12.0,75,0.01,,,0.06,weatherlink.com 1.10,2013-08-02 17:40:00,
2013-08-02 18:55:00,62.0,55.0,29.42,WSW,251,6.0,11.0,79,0.02,,,0.07,weatherlink.com 1.10,2013-08-02 17:55:00,
2013-08-02 19:11:00,64.1,57.0,29.43,SSW,194,3.0,7.0,79,0.03,,,0.08,weatherlink.com 1.10,2013-08-02 18:11:00,
2013-08-02 19:25:00,65.1,57.0,29.43,WNW,285,5.0,9.0,75,0.03,,,0.08,weatherlink.com 1.10,2013-08-02 18:25:00,
2013-08-02 19:41:00,64.6,57.0,29.43,WSW,256,5.0,8.0,76,0.02,,,0.08,weatherlink.com 1.10,2013-08-02 18:41:00,
2013-08-02 19:55:00,64.1,57.0,29.43,West,271,1.0,8.0,77,0.01,,,0.08,weatherlink.com 1.10,2013-08-02 18:55:00,
2013-08-02 20:11:00,63.6,57.0,29.44,SW,222,3.0,8.0,80,0.00,,,0.08,weatherlink.com 1.10,2013-08-02 19:11:00,
2013-08-02 20:26:00,63.1,57.0,29.44,East,96,2.0,12.0,79,0.00,,,0.08,weatherlink.com 1.10,2013-08-02 19:26:00,
2013-08-02 20:41:00,62.6,56.0,29.45,West,259,7.0,10.0,79,0.00,,,0.08,weatherlink.com 1.10,2013-08-02 19:41:00,
2013-08-02 20:56:00,62.1,56.0,29.45,WNW,286,2.0,10.0,79,0.00,,,0.08,weatherlink.com 1.10,2013-08-02 19:56:00,
2013-08-02 21:11:00,61.6,55.0,29.45,West,259,3.0,8.0,80,0.00,,,0.08,weatherlink.com 1.10,2013-08-02 20:11:00,
2013-08-02 21:26:00,61.3,55.0,29.46,WSW,240,1.0,6.0,81,0.00,,,0.08,weatherlink.com 1.10,2013-08-02 20:26:00,
2013-08-02 21:41:00,61.2,55.0,29.46,WSW,242,1.0,8.0,81,0.00,,,0.08,weatherlink.com 1.10,2013-08-02 20:41:00,
2013-08-02 21:56:00,61.2,56.0,29.47,SSW,212,3.0,7.0,82,0.00,,,0.08,weatherlink.com 1.10,2013-08-02 20:56:00,
2013-08-02 22:11:00,61.2,55.0,29.48,WSW,243,6.0,12.0,79,0.00,,,0.08,weatherlink.com 1.10,2013-08-02 21:11:00,
2013-08-02 22:26:00,59.3,54.0,29.48,West,266,2.0,11.0,83,0.02,,,0.09,weatherlink.com 1.10,2013-08-02 21:26:00,
2013-08-02 22:41:00,58.5,54.0,29.48,WSW,252,3.0,9.0,84,0.02,,,0.09,weatherlink.com 1.10,2013-08-02 21:41:00,
2013-08-02 22:56:00,58.2,54.0,29.48,West,277,2.0,7.0,86,0.02,,,0.09,weatherlink.com 1.10,2013-08-02 21:56:00,
2013-08-02 23:11:00,58.2,54.0,29.48,WNW,300,5.0,9.0,86,0.02,,,0.09,weatherlink.com 1.10,2013-08-02 22:11:00,
2013-08-02 23:41:00,58.1,54.0,29.49,West,269,3.0,8.0,86,0.00,,,0.09,weatherlink.com 1.10,2013-08-02 22:41:00,
2013-08-02 23:56:00,57.8,54.0,29.49,WSW,252,9.0,9.0,86,0.00,,,0.09,weatherlink.com 1.10,2013-08-02 22:56:00,